KAL2272 RJCC-RJTT

Flight info

Callsign KAL2272
Flight time 1h 28m
Altitude 36000
Route TOBBY Y10 GODIN
Aircraft A321/M-SDE3FGHIRWY/LB1

Departure

Time 2026-02-17 03:01
Airport New Chitose Airport (RJCC)

Arrival

Time 2026-02-17 04:30
Airport Tokyo Haneda International Airport (RJTT)
Time Latitude Longitude Altitude Speed Heading
2026-02-17 02:41 42.78674 141.68256 87 ft 0 kts 284°
2026-02-17 02:55 42.78673 141.68262 107 ft 2 kts 284°
2026-02-17 02:55 42.78669 141.68287 110 ft 3 kts 285°
2026-02-17 02:55 42.78663 141.68313 91 ft 3 kts 288°
2026-02-17 02:56 42.78657 141.68339 92 ft 3 kts 292°
2026-02-17 02:56 42.78648 141.68364 89 ft 3 kts 299°
2026-02-17 02:56 42.78638 141.68386 89 ft 2 kts 310°
2026-02-17 02:56 42.78636 141.68389 87 ft 0 kts 310°
2026-02-17 02:58 42.78637 141.68388 90 ft 1 kts 311°
2026-02-17 02:59 42.78760 141.68429 89 ft 9 kts 34°
2026-02-17 02:59 42.78785 141.68457 90 ft 9 kts 45°
2026-02-17 02:59 42.78809 141.68592 91 ft 21 kts 82°
2026-02-17 02:59 42.78824 141.68779 88 ft 15 kts 106°
2026-02-17 03:00 42.78745 141.68830 89 ft 0 kts 172°
2026-02-17 03:00 42.78494 141.68877 86 ft 75 kts 172°
2026-02-17 03:00 42.77763 141.69015 81 ft 135 kts 173°
2026-02-17 03:01 42.76707 141.69178 313 ft 161 kts 173°
2026-02-17 03:01 42.75591 141.69369 1006 ft 162 kts 172°
2026-02-17 03:01 42.74476 141.69597 1748 ft 164 kts 173°
2026-02-17 03:01 42.73273 141.69846 2119 ft 185 kts 174°
2026-02-17 03:02 42.71938 141.70119 2334 ft 208 kts 173°
2026-02-17 03:02 42.70419 141.70427 2608 ft 233 kts 173°
2026-02-17 03:02 42.68770 141.70763 3312 ft 243 kts 174°
2026-02-17 03:03 42.65343 141.71460 5017 ft 256 kts 175°
2026-02-17 03:03 42.63560 141.71819 5806 ft 262 kts 175°
2026-02-17 03:03 42.61726 141.72104 6602 ft 266 kts 180°
2026-02-17 03:03 42.59868 141.72250 7363 ft 270 kts 182°
2026-02-17 03:04 42.57979 141.72350 8145 ft 273 kts 182°
2026-02-17 03:04 42.56073 141.72437 8934 ft 276 kts 182°
2026-02-17 03:04 42.54142 141.72523 9718 ft 279 kts 182°
2026-02-17 03:04 42.52181 141.72619 10369 ft 288 kts 182°
2026-02-17 03:05 42.50100 141.72719 10541 ft 310 kts 182°
2026-02-17 03:05 42.47873 141.72830 10801 ft 327 kts 182°
2026-02-17 03:05 42.45602 141.72951 11379 ft 333 kts 181°
2026-02-17 03:05 42.43270 141.73083 12052 ft 337 kts 181°
2026-02-17 03:06 42.40915 141.73222 12728 ft 341 kts 181°
2026-02-17 03:06 42.38534 141.73364 13410 ft 344 kts 181°
2026-02-17 03:06 42.36132 141.73506 14061 ft 348 kts 181°
2026-02-17 03:07 42.31263 141.73781 15287 ft 353 kts 181°
2026-02-17 03:07 42.28793 141.73915 15893 ft 355 kts 181°
2026-02-17 03:07 42.26316 141.74050 16502 ft 358 kts 181°
2026-02-17 03:07 42.23822 141.74191 17108 ft 360 kts 181°
2026-02-17 03:08 42.21314 141.74333 17722 ft 362 kts 181°
2026-02-17 03:08 42.18784 141.74476 18318 ft 364 kts 181°
2026-02-17 03:08 42.16248 141.74619 18813 ft 367 kts 181°
2026-02-17 03:08 42.13685 141.74763 19301 ft 370 kts 181°
2026-02-17 03:09 42.11108 141.74909 19780 ft 372 kts 181°
2026-02-17 03:09 42.08549 141.75054 20236 ft 374 kts 181°
2026-02-17 03:09 42.05921 141.75201 20701 ft 376 kts 181°
2026-02-17 03:09 42.03300 141.75344 21131 ft 378 kts 181°
2026-02-17 03:10 42.00694 141.75485 21558 ft 380 kts 181°
2026-02-17 03:10 41.98046 141.75632 21983 ft 382 kts 181°
2026-02-17 03:10 41.95364 141.75782 22406 ft 385 kts 181°
2026-02-17 03:11 41.89986 141.76100 23237 ft 390 kts 180°
2026-02-17 03:11 41.87270 141.76327 23670 ft 392 kts 180°
2026-02-17 03:11 41.84535 141.76598 24037 ft 395 kts 179°
2026-02-17 03:11 41.81802 141.76884 24401 ft 397 kts 179°
2026-02-17 03:12 41.79033 141.77172 24765 ft 399 kts 179°
2026-02-17 03:12 41.76255 141.77456 25125 ft 401 kts 180°
2026-02-17 03:12 41.73473 141.77732 25454 ft 403 kts 180°
2026-02-17 03:12 41.70657 141.77996 25791 ft 406 kts 180°
2026-02-17 03:13 41.67831 141.78254 26142 ft 408 kts 180°
2026-02-17 03:13 41.64990 141.78511 26488 ft 410 kts 180°
2026-02-17 03:13 41.62135 141.78770 26835 ft 412 kts 180°
2026-02-17 03:13 41.59258 141.79031 27167 ft 414 kts 180°
2026-02-17 03:14 41.56373 141.79297 27517 ft 417 kts 180°
2026-02-17 03:14 41.53526 141.79565 27832 ft 419 kts 180°
2026-02-17 03:14 41.50616 141.79586 28140 ft 416 kts 189°
2026-02-17 03:15 41.44958 141.78092 28769 ft 415 kts 198°
2026-02-17 03:15 41.42150 141.77166 29097 ft 417 kts 198°
2026-02-17 03:15 41.39327 141.76244 29417 ft 419 kts 198°
2026-02-17 03:15 41.36490 141.75323 29727 ft 421 kts 198°
2026-02-17 03:16 41.33635 141.74397 30022 ft 422 kts 198°
2026-02-17 03:16 41.30774 141.73470 30266 ft 424 kts 198°
2026-02-17 03:16 41.25026 141.71610 30710 ft 427 kts 199°
2026-02-17 03:17 41.22131 141.70675 30917 ft 428 kts 199°
2026-02-17 03:17 41.19276 141.69752 31186 ft 428 kts 199°
2026-02-17 03:17 41.16380 141.68819 31493 ft 426 kts 199°
2026-02-17 03:17 41.13498 141.67892 31797 ft 425 kts 199°
2026-02-17 03:18 41.10627 141.66967 32102 ft 424 kts 199°
2026-02-17 03:18 41.07750 141.66040 32399 ft 424 kts 199°
2026-02-17 03:18 41.04885 141.65114 32681 ft 423 kts 200°
2026-02-17 03:19 40.99175 141.63274 33236 ft 421 kts 200°
2026-02-17 03:19 40.96342 141.62364 33518 ft 420 kts 200°
2026-02-17 03:19 40.93493 141.61447 33806 ft 420 kts 200°
2026-02-17 03:19 40.90668 141.60541 34088 ft 419 kts 200°
2026-02-17 03:20 40.87834 141.59636 34324 ft 418 kts 200°
2026-02-17 03:20 40.85038 141.58743 34525 ft 418 kts 201°
2026-02-17 03:20 40.82216 141.57839 34696 ft 418 kts 201°
2026-02-17 03:20 40.79392 141.56936 34865 ft 418 kts 201°
2026-02-17 03:21 40.76566 141.56035 35058 ft 418 kts 201°
2026-02-17 03:21 40.73749 141.55136 35243 ft 417 kts 201°
2026-02-17 03:21 40.70918 141.54232 35411 ft 417 kts 201°
2026-02-17 03:21 40.68103 141.53334 35587 ft 417 kts 201°
2026-02-17 03:22 40.65287 141.52436 35758 ft 417 kts 201°
2026-02-17 03:22 40.62470 141.51539 35928 ft 417 kts 201°
2026-02-17 03:22 40.59649 141.50642 36102 ft 417 kts 201°
2026-02-17 03:23 40.51222 141.47964 36188 ft 413 kts 201°
2026-02-17 03:23 40.45633 141.46201 36186 ft 412 kts 201°
2026-02-17 03:24 40.40101 141.44459 36184 ft 412 kts 201°
2026-02-17 03:24 40.34509 141.42697 36169 ft 412 kts 202°
2026-02-17 03:25 40.28924 141.40935 36188 ft 413 kts 202°
2026-02-17 03:25 40.23340 141.39172 36185 ft 412 kts 202°
2026-02-17 03:26 40.17763 141.37431 36192 ft 413 kts 202°
2026-02-17 03:27 40.09390 141.34808 36183 ft 412 kts 202°
2026-02-17 03:27 40.03815 141.33054 36184 ft 412 kts 202°
2026-02-17 03:28 39.98274 141.31319 36186 ft 412 kts 202°
2026-02-17 03:28 39.92724 141.29502 36192 ft 411 kts 203°
2026-02-17 03:29 39.87178 141.27656 36166 ft 411 kts 203°
2026-02-17 03:29 39.81646 141.25832 36183 ft 410 kts 203°
2026-02-17 03:30 39.76101 141.24017 36195 ft 410 kts 203°
2026-02-17 03:30 39.70590 141.22213 36180 ft 410 kts 203°
2026-02-17 03:31 39.62283 141.19501 36166 ft 410 kts 203°
2026-02-17 03:31 39.56746 141.17699 36171 ft 410 kts 203°
2026-02-17 03:32 39.51220 141.15904 36170 ft 410 kts 203°
2026-02-17 03:32 39.45686 141.14103 36187 ft 409 kts 203°
2026-02-17 03:33 39.40178 141.12346 36170 ft 410 kts 202°
2026-02-17 03:33 39.34625 141.10680 36201 ft 410 kts 202°
2026-02-17 03:34 39.29071 141.09027 36190 ft 409 kts 202°
2026-02-17 03:35 39.20757 141.06536 36173 ft 409 kts 202°
2026-02-17 03:35 39.15214 141.04865 36186 ft 408 kts 203°
2026-02-17 03:36 39.09683 141.03207 36190 ft 408 kts 203°
2026-02-17 03:36 39.04146 141.01553 36196 ft 408 kts 203°
2026-02-17 03:37 38.98751 140.99936 36180 ft 408 kts 203°
2026-02-17 03:37 38.93225 140.98275 36186 ft 407 kts 203°
2026-02-17 03:38 38.87696 140.96626 36181 ft 408 kts 203°
2026-02-17 03:38 38.82205 140.94994 36190 ft 408 kts 203°
2026-02-17 03:39 38.73924 140.92541 36172 ft 407 kts 203°
2026-02-17 03:39 38.68404 140.90902 36173 ft 407 kts 203°
2026-02-17 03:40 38.62889 140.89273 36180 ft 407 kts 203°
2026-02-17 03:40 38.57374 140.87642 36185 ft 406 kts 203°
2026-02-17 03:41 38.51864 140.86016 36173 ft 406 kts 203°
2026-02-17 03:41 38.46360 140.84395 36182 ft 406 kts 203°
2026-02-17 03:42 38.40850 140.82776 36187 ft 406 kts 203°
2026-02-17 03:43 38.33557 140.80640 36171 ft 405 kts 204°
2026-02-17 03:43 38.27170 140.78768 36168 ft 405 kts 204°
2026-02-17 03:44 38.21680 140.77159 36177 ft 405 kts 204°
2026-02-17 03:44 38.17082 140.75819 36180 ft 404 kts 204°
2026-02-17 03:45 38.11635 140.74227 36161 ft 404 kts 204°
2026-02-17 03:45 38.06157 140.72630 36175 ft 404 kts 204°
2026-02-17 03:46 38.00666 140.71040 36185 ft 404 kts 204°
2026-02-17 03:46 37.95193 140.69456 36190 ft 404 kts 204°
2026-02-17 03:47 37.87010 140.67080 36179 ft 404 kts 205°
2026-02-17 03:47 37.81531 140.65490 36185 ft 404 kts 204°
2026-02-17 03:48 37.78793 140.64698 35885 ft 406 kts 204°
2026-02-17 03:48 37.76027 140.63897 35205 ft 406 kts 204°
2026-02-17 03:48 37.70501 140.62302 33568 ft 410 kts 205°
2026-02-17 03:49 37.67756 140.61513 33054 ft 405 kts 204°
2026-02-17 03:49 37.64997 140.60729 32559 ft 399 kts 204°
2026-02-17 03:49 37.62335 140.59969 32047 ft 394 kts 204°
2026-02-17 03:49 37.59682 140.59210 31554 ft 389 kts 204°
2026-02-17 03:50 37.57058 140.58460 31067 ft 384 kts 204°
2026-02-17 03:50 37.54469 140.57721 30597 ft 379 kts 204°
2026-02-17 03:50 37.51911 140.56987 30113 ft 374 kts 203°
2026-02-17 03:51 37.46924 140.55557 29189 ft 359 kts 204°
2026-02-17 03:51 37.44514 140.54872 28757 ft 352 kts 204°
2026-02-17 03:51 37.42152 140.54200 28334 ft 344 kts 204°
2026-02-17 03:51 37.39847 140.53541 27941 ft 337 kts 204°
2026-02-17 03:52 37.37557 140.52878 27543 ft 336 kts 204°
2026-02-17 03:52 37.35281 140.52218 27160 ft 335 kts 204°
2026-02-17 03:52 37.33015 140.51564 26780 ft 334 kts 204°
2026-02-17 03:52 37.30761 140.50914 26400 ft 332 kts 204°
2026-02-17 03:53 37.28534 140.50274 26044 ft 331 kts 204°
2026-02-17 03:53 37.26301 140.49637 25648 ft 328 kts 204°
2026-02-17 03:53 37.24086 140.49009 25306 ft 326 kts 204°
2026-02-17 03:53 37.21878 140.48383 24961 ft 324 kts 204°
2026-02-17 03:54 37.19686 140.47764 24618 ft 323 kts 204°
2026-02-17 03:54 37.17504 140.47147 24275 ft 322 kts 204°
2026-02-17 03:54 37.15316 140.46530 23928 ft 320 kts 204°
2026-02-17 03:55 37.10987 140.45303 23197 ft 318 kts 204°
2026-02-17 03:55 37.08832 140.44688 22847 ft 317 kts 204°
2026-02-17 03:55 37.06715 140.44083 22488 ft 315 kts 203°
2026-02-17 03:55 37.04582 140.43480 22383 ft 314 kts 203°
2026-02-17 03:56 37.02437 140.42869 22284 ft 325 kts 203°
2026-02-17 03:56 37.00192 140.42218 22127 ft 335 kts 203°
2026-02-17 03:56 36.97912 140.41567 22146 ft 339 kts 202°
2026-02-17 03:56 36.95606 140.40918 22149 ft 340 kts 202°
2026-02-17 03:57 36.93292 140.40270 22154 ft 340 kts 202°
2026-02-17 03:57 36.90988 140.39624 22156 ft 340 kts 202°
2026-02-17 03:57 36.88678 140.38977 22153 ft 340 kts 202°
2026-02-17 03:57 36.86367 140.38330 22156 ft 340 kts 202°
2026-02-17 03:58 36.84056 140.37682 22143 ft 340 kts 202°
2026-02-17 03:58 36.81750 140.37036 22154 ft 340 kts 202°
2026-02-17 03:58 36.79439 140.36387 22152 ft 340 kts 202°
2026-02-17 03:59 36.74837 140.35089 22153 ft 340 kts 202°
2026-02-17 03:59 36.72509 140.34493 22153 ft 342 kts 200°
2026-02-17 03:59 36.70148 140.33987 22018 ft 344 kts 199°
2026-02-17 03:59 36.67757 140.33519 21038 ft 352 kts 198°
2026-02-17 04:00 36.65368 140.33078 20700 ft 343 kts 198°
2026-02-17 04:00 36.63030 140.32655 20299 ft 335 kts 198°
2026-02-17 04:00 36.60744 140.32230 19882 ft 329 kts 198°
2026-02-17 04:00 36.58499 140.31796 19472 ft 324 kts 198°
2026-02-17 04:01 36.56282 140.31356 19087 ft 320 kts 198°
2026-02-17 04:01 36.54105 140.30917 18701 ft 315 kts 198°
2026-02-17 04:01 36.51990 140.30488 18322 ft 311 kts 198°
2026-02-17 04:01 36.49861 140.30058 17935 ft 307 kts 198°
2026-02-17 04:02 36.47758 140.29631 17570 ft 306 kts 198°
2026-02-17 04:02 36.45660 140.29203 17210 ft 305 kts 198°
2026-02-17 04:02 36.43568 140.28779 16840 ft 304 kts 197°
2026-02-17 04:03 36.39399 140.27944 16162 ft 302 kts 197°
2026-02-17 04:03 36.37324 140.27531 15818 ft 302 kts 197°
2026-02-17 04:03 36.35252 140.27118 15471 ft 301 kts 197°
2026-02-17 04:03 36.33190 140.26706 15132 ft 300 kts 196°
2026-02-17 04:04 36.31155 140.26300 14802 ft 300 kts 196°
2026-02-17 04:04 36.29073 140.25885 14454 ft 298 kts 196°
2026-02-17 04:04 36.27031 140.25479 14113 ft 297 kts 195°
2026-02-17 04:04 36.24986 140.25076 13749 ft 297 kts 195°
2026-02-17 04:05 36.22975 140.24680 13393 ft 295 kts 195°
2026-02-17 04:05 36.20950 140.24281 13076 ft 294 kts 195°
2026-02-17 04:05 36.18868 140.23862 12890 ft 310 kts 195°
2026-02-17 04:05 36.16731 140.23432 12655 ft 313 kts 195°
2026-02-17 04:06 36.14584 140.23005 12447 ft 312 kts 195°
2026-02-17 04:06 36.12439 140.22580 12215 ft 311 kts 194°
2026-02-17 04:06 36.10307 140.22158 11994 ft 309 kts 194°
2026-02-17 04:07 36.06095 140.21329 11401 ft 305 kts 194°
2026-02-17 04:07 36.04005 140.20918 11164 ft 304 kts 194°
2026-02-17 04:07 36.01913 140.20557 10962 ft 304 kts 188°
2026-02-17 04:07 35.99792 140.20504 10785 ft 305 kts 186°
2026-02-17 04:08 35.97671 140.20471 10611 ft 304 kts 186°
2026-02-17 04:08 35.95560 140.20435 10426 ft 302 kts 186°
2026-02-17 04:08 35.93493 140.20398 10260 ft 298 kts 185°
2026-02-17 04:08 35.91465 140.20368 10097 ft 285 kts 186°
2026-02-17 04:09 35.89518 140.20340 9795 ft 278 kts 185°
2026-02-17 04:09 35.87594 140.20310 9653 ft 275 kts 186°
2026-02-17 04:09 35.85686 140.20276 9513 ft 274 kts 185°
2026-02-17 04:09 35.83777 140.20238 9376 ft 274 kts 185°
2026-02-17 04:10 35.81879 140.20202 9240 ft 273 kts 185°
2026-02-17 04:10 35.79981 140.20170 9117 ft 272 kts 185°
2026-02-17 04:10 35.78085 140.20141 9052 ft 272 kts 184°
2026-02-17 04:11 35.74295 140.20264 8780 ft 272 kts 182°
2026-02-17 04:11 35.72410 140.20369 8626 ft 271 kts 181°
2026-02-17 04:11 35.68714 140.20569 8363 ft 258 kts 182°
2026-02-17 04:12 35.66950 140.20664 8246 ft 244 kts 182°
2026-02-17 04:12 35.65403 140.20742 8169 ft 229 kts 182°
2026-02-17 04:12 35.63848 140.20818 8046 ft 220 kts 182°
2026-02-17 04:12 35.62331 140.20888 7955 ft 217 kts 183°
2026-02-17 04:13 35.60825 140.20921 7859 ft 216 kts 184°
2026-02-17 04:13 35.59326 140.20930 7795 ft 215 kts 184°
2026-02-17 04:13 35.57837 140.20932 7706 ft 213 kts 184°
2026-02-17 04:13 35.56356 140.20934 7621 ft 213 kts 184°
2026-02-17 04:14 35.54899 140.20941 7542 ft 203 kts 184°
2026-02-17 04:14 35.53548 140.20954 7461 ft 186 kts 184°
2026-02-17 04:14 35.52322 140.20967 7420 ft 167 kts 184°
2026-02-17 04:15 35.50177 140.20970 7293 ft 162 kts 188°
2026-02-17 04:15 35.49077 140.20738 7230 ft 159 kts 199°
2026-02-17 04:15 35.48047 140.20245 7171 ft 158 kts 206°
2026-02-17 04:15 35.47040 140.19699 7108 ft 158 kts 206°
2026-02-17 04:16 35.46035 140.19159 7046 ft 157 kts 205°
2026-02-17 04:16 35.45038 140.18626 6981 ft 156 kts 205°
2026-02-17 04:16 35.44043 140.18094 6921 ft 156 kts 205°
2026-02-17 04:16 35.43048 140.17561 6861 ft 157 kts 206°
2026-02-17 04:17 35.42052 140.17028 6792 ft 156 kts 205°
2026-02-17 04:17 35.41059 140.16495 6742 ft 156 kts 205°
2026-02-17 04:17 35.40066 140.15962 6681 ft 155 kts 205°
2026-02-17 04:17 35.39079 140.15433 6620 ft 155 kts 205°
2026-02-17 04:18 35.38090 140.14903 6558 ft 155 kts 205°
2026-02-17 04:18 35.37113 140.14380 6495 ft 155 kts 205°
2026-02-17 04:18 35.36120 140.13851 6431 ft 156 kts 205°
2026-02-17 04:19 35.34138 140.12794 6311 ft 155 kts 205°
2026-02-17 04:19 35.33153 140.12268 6246 ft 154 kts 205°
2026-02-17 04:19 35.32162 140.11740 6184 ft 156 kts 205°
2026-02-17 04:19 35.31162 140.11205 6125 ft 157 kts 205°
2026-02-17 04:20 35.30229 140.10522 6056 ft 155 kts 218°
2026-02-17 04:20 35.29477 140.09575 5999 ft 156 kts 230°
2026-02-17 04:20 35.28935 140.08428 5936 ft 157 kts 243°
2026-02-17 04:20 35.28539 140.07175 5871 ft 158 kts 244°
2026-02-17 04:21 35.28137 140.05923 5803 ft 158 kts 244°
2026-02-17 04:21 35.27731 140.04660 5731 ft 161 kts 244°
2026-02-17 04:21 35.27321 140.03377 5674 ft 163 kts 245°
2026-02-17 04:21 35.26905 140.02076 5604 ft 165 kts 245°
2026-02-17 04:22 35.26491 140.00762 5536 ft 167 kts 248°
2026-02-17 04:22 35.26380 139.99339 5464 ft 173 kts 274°
2026-02-17 04:22 35.26800 139.97952 5396 ft 176 kts 302°
2026-02-17 04:23 35.28762 139.96175 5248 ft 178 kts 330°
2026-02-17 04:23 35.29848 139.95412 5167 ft 182 kts 332°
2026-02-17 04:23 35.30949 139.94634 5103 ft 182 kts 332°
2026-02-17 04:23 35.32037 139.93867 5026 ft 181 kts 333°
2026-02-17 04:24 35.33129 139.93097 4857 ft 184 kts 334°
2026-02-17 04:24 35.34230 139.92319 4624 ft 181 kts 333°
2026-02-17 04:24 35.35302 139.91562 4378 ft 175 kts 333°
2026-02-17 04:24 35.36346 139.90825 4132 ft 172 kts 335°
2026-02-17 04:25 35.37380 139.90095 3896 ft 171 kts 335°
2026-02-17 04:25 35.38403 139.89372 3660 ft 169 kts 335°
2026-02-17 04:25 35.39412 139.88659 3424 ft 167 kts 335°
2026-02-17 04:25 35.40418 139.87948 3194 ft 166 kts 335°
2026-02-17 04:26 35.41405 139.87250 2957 ft 162 kts 335°
2026-02-17 04:26 35.42373 139.86565 2733 ft 159 kts 334°
2026-02-17 04:26 35.43326 139.85891 2511 ft 157 kts 334°
2026-02-17 04:27 35.45203 139.84562 2071 ft 155 kts 333°
2026-02-17 04:27 35.46133 139.83904 1853 ft 153 kts 334°
2026-02-17 04:27 35.47048 139.83256 1596 ft 149 kts 334°
2026-02-17 04:27 35.47920 139.82637 1395 ft 142 kts 334°
2026-02-17 04:28 35.48767 139.82037 1196 ft 139 kts 334°
2026-02-17 04:28 35.49603 139.81445 1005 ft 139 kts 334°
2026-02-17 04:28 35.50434 139.80856 794 ft 140 kts 334°
2026-02-17 04:28 35.51279 139.80258 614 ft 140 kts 334°
2026-02-17 04:29 35.52125 139.79657 415 ft 141 kts 334°
2026-02-17 04:29 35.52981 139.79050 233 ft 143 kts 334°
2026-02-17 04:29 35.53836 139.78435 38 ft 141 kts 333°
2026-02-17 04:29 35.54615 139.77891 25 ft 109 kts 330°
2026-02-17 04:30 35.55033 139.77588 25 ft 40 kts 329°
2026-02-17 04:30 35.55175 139.77471 25 ft 18 kts 297°
2026-02-17 04:30 35.55159 139.77350 23 ft 12 kts 239°
2026-02-17 04:31 35.55005 139.77359 23 ft 19 kts 150°
2026-02-17 04:31 35.54895 139.77418 23 ft 16 kts 185°
2026-02-17 04:31 35.54823 139.77324 25 ft 17 kts 250°
2026-02-17 04:31 35.54768 139.77171 23 ft 24 kts 239°
2026-02-17 04:32 35.54742 139.77025 23 ft 13 kts 267°
2026-02-17 04:32 35.54710 139.76941 23 ft 10 kts 241°
2026-02-17 04:32 35.54705 139.76930 23 ft 0 kts 240°